FW1494 Weather Reports


Display with metric or nautical units.
time (UTC)temp
F
wind
direction
speed
MPH
gust
MPH
rain 1hr
in
rain 24hr
in
rain mn
in
humidity
%
barometer
mb
20191207171653 62 252 2.0 4.0 0.00 0.00 0.00 93 1017.4
20191207171126 62 38 2.0 5.0 0.00 0.00 0.00 94 1017.5
20191207170559 62 45 1.0 5.0 0.00 0.00 0.00 93 1017.4
20191207170030 62 45 0.0 0.0 0.00 0.00 0.00 94 1017.4
20191207165505 62 45 0.0 2.0 0.00 0.00 0.00 94 1017.5
20191207164938 62 45 1.0 5.0 0.00 0.00 0.00 94 1017.5
20191207164412 62 45 3.0 5.0 0.00 0.00 0.00 94 1017.5
20191207163843 62 45 3.0 5.0 0.00 0.00 0.00 94 1017.3
20191207163331 62 25 2.0 4.0 0.00 0.00 0.00 93 1017.1
20191207162830 62 25 2.0 4.0 0.00 0.00 0.00 93 1017.2
20191207162303 62 25 3.0 4.0 0.00 0.00 0.00 93 1017.2
20191207161733 62 22 2.0 4.0 0.00 0.00 0.00 93 1017.2
20191207161209 62 21 2.0 4.0 0.00 0.00 0.00 93 1017.3
20191207160646 62 21 1.0 4.0 0.00 0.00 0.00 93 1017.3
20191207160119 62 21 0.0 0.0 0.00 0.00 0.00 93 1017.2
20191207155555 62 21 0.0 0.0 0.00 0.00 0.00 93 1017.1
20191207155026 62 21 0.0 0.0 0.00 0.00 0.00 93 1017.1
20191207154502 62 21 1.0 4.0 0.00 0.00 0.00 93 1017.1
20191207153934 62 21 2.0 4.0 0.00 0.00 0.00 93 1017.2
20191207153427 63 21 2.0 4.0 0.00 0.00 0.00 93 1017.2
20191207152928 62 21 3.0 4.0 0.00 0.00 0.00 93 1017.2
20191207152405 62 21 3.0 4.0 0.00 0.00 0.00 93 1017.3
20191207151838 62 22 3.0 5.0 0.00 0.00 0.00 93 1017.2
20191207151310 62 21 4.0 5.0 0.00 0.00 0.00 92 1017.3
20191207150744 63 22 3.0 5.0 0.00 0.00 0.00 92 1017.2
20191207150217 63 21 0.0 4.0 0.00 0.00 0.00 93 1017.3
20191207145649 63 20 0.0 0.0 0.00 0.00 0.00 93 1017.4
20191207145121 63 20 0.0 4.0 0.00 0.00 0.00 93 1017.3
20191207144600 63 20 1.0 4.0 0.00 0.00 0.00 93 1017.3
20191207144031 62 26 2.0 5.0 0.00 0.00 0.00 93 1017.2
20191207143510 63 26 1.0 5.0 0.00 0.00 0.00 93 1017.1
20191207142944 63 24 1.0 5.0 0.00 0.00 0.00 92 1017.2
20191207142426 63 24 2.0 5.0 0.00 0.00 0.00 93 1017.2
20191207141926 63 25 3.0 5.0 0.00 0.00 0.00 93 1017.0
20191207141424 63 25 4.0 6.0 0.00 0.00 0.00 93 1017.1
20191207140923 62 25 4.0 6.0 0.00 0.00 0.00 93 1017.2
20191207140424 62 34 5.0 6.0 0.00 0.00 0.00 93 1017.3
20191207135921 62 34 4.0 6.0 0.00 0.00 0.00 93 1017.2
20191207135424 62 32 4.0 6.0 0.00 0.00 0.00 93 1017.3
20191207134921 62 27 4.0 6.0 0.00 0.00 0.00 93 1017.5
20191207134419 62 35 4.0 5.0 0.00 0.00 0.00 93 1017.4
20191207133919 62 43 2.0 5.0 0.00 0.00 0.00 93 1017.5
20191207133417 62 313 0.0 2.0 0.00 0.00 0.00 92 1017.5
20191207132916 62 311 1.0 3.0 0.00 0.00 0.00 92 1017.6
20191207132416 62 311 1.0 4.0 0.00 0.00 0.00 91 1017.7
20191207131908 62 311 1.0 4.0 0.00 0.00 0.00 91 1017.9
20191207131406 63 20 1.0 4.0 0.00 0.00 0.00 91 1018.0
20191207130903 63 20 1.0 4.0 0.00 0.00 0.00 92 1017.9
20191207130401 63 20 0.0 3.0 0.00 0.00 0.00 92 1017.9
20191207125844 63 20 0.0 1.0 0.00 0.00 0.00 91 1018.0
20191207125345 63 20 1.0 3.0 0.00 0.00 0.00 91 1017.9
20191207124816 63 20 1.0 4.0 0.00 0.00 0.00 90 1018.0
20191207124258 64 20 1.0 4.0 0.00 0.00 0.00 90 1017.9
20191207123759 64 21 0.0 4.0 0.00 0.00 0.00 90 1017.9
20191207123230 64 21 2.0 4.0 0.00 0.00 0.00 91 1017.8
20191207122711 64 21 3.0 5.0 0.00 0.00 0.00 91 1017.9
20191207122213 64 21 3.0 5.0 0.00 0.00 0.00 91 1017.9
20191207121646 64 22 3.0 5.0 0.00 0.00 0.00 91 1017.9
20191207121145 64 22 3.0 5.0 0.00 0.00 0.00 91 1017.9
20191207120647 64 22 4.0 5.0 0.00 0.00 0.00 92 1017.9
20191207120145 64 24 3.0 5.0 0.00 0.00 0.00 92 1017.9
20191207115644 64 24 4.0 5.0 0.00 0.00 0.00 92 1018.1
20191207115144 64 22 4.0 5.0 0.00 0.00 0.00 91 1018.0
20191207114642 64 22 4.0 5.0 0.00 0.00 0.00 92 1017.9
20191207114141 64 25 3.0 5.0 0.00 0.00 0.00 92 1018.0
20191207113642 64 26 4.0 5.0 0.00 0.00 0.00 92 1018.0
20191207113141 64 26 3.0 5.0 0.00 0.00 0.00 92 1017.9
20191207112641 64 27 3.0 5.0 0.00 0.00 0.00 92 1017.9
20191207112143 65 27 4.0 5.0 0.00 0.00 0.00 92 1018.0
20191207111614 65 27 4.0 5.0 0.00 0.00 0.00 91 1018.0
20191207111055 65 22 4.0 6.0 0.00 0.00 0.00 91 1018.1
20191207110557 65 22 4.0 6.0 0.00 0.00 0.00 91 1018.1
20191207110048 65 19 5.0 6.0 0.00 0.00 0.00 91 1018.1
20191207105529 65 36 5.0 6.0 0.00 0.00 0.00 91 1018.1
20191207105028 65 31 4.0 6.0 0.00 0.00 0.00 90 1018.2
20191207104514 65 30 3.0 5.0 0.00 0.00 0.00 89 1018.2
20191207104012 65 28 2.0 5.0 0.00 0.00 0.00 89 1018.2
20191207103509 65 30 3.0 6.0 0.00 0.00 0.00 89 1018.3
20191207103007 65 32 3.0 6.0 0.00 0.00 0.00 89 1018.3
20191207102507 65 11 3.0 6.0 0.00 0.00 0.00 90 1018.3
20191207102005 65 24 2.0 6.0 0.00 0.00 0.00 90 1018.2
20191207101503 65 5 3.0 6.0 0.00 0.00 0.00 90 1018.2
20191207101002 65 36 3.0 6.0 0.00 0.00 0.00 90 1018.3
20191207100502 65 36 3.0 6.0 0.00 0.00 0.00 90 1018.3
20191207100001 65 36 3.0 4.0 0.00 0.00 0.00 90 1018.3
20191207095459 65 36 2.0 4.0 0.00 0.00 0.00 89 1018.4
20191207094954 66 36 1.0 4.0 0.00 0.00 0.00 90 1018.4
20191207094451 66 36 0.0 4.0 0.00 0.00 0.00 90 1018.5
20191207093949 66 36 2.0 4.0 0.00 0.00 0.00 91 1018.6
20191207093451 66 36 3.0 5.0 0.00 0.00 0.00 90 1018.5
20191207092922 66 36 2.0 5.0 0.00 0.00 0.00 90 1018.5
20191207092354 67 36 3.0 4.0 0.00 0.00 0.00 91 1018.5
20191207091835 67 36 2.0 4.0 0.00 0.00 0.00 91 1018.6
20191207091336 67 36 2.0 4.0 0.00 0.00 0.00 91 1018.5
20191207090829 67 36 3.0 6.0 0.00 0.00 0.00 92 1018.7
20191207090327 67 36 3.0 6.0 0.00 0.00 0.00 92 1018.7
20191207085825 67 20 2.0 5.0 0.00 0.00 0.00 92 1018.7
20191207085324 67 20 3.0 6.0 0.00 0.00 0.00 91 1018.6
20191207084820 68 20 3.0 6.0 0.00 0.00 0.00 91 1018.6
20191207084322 68 16 3.0 5.0 0.00 0.00 0.00 91 1018.6
20191207083821 68 310 2.0 4.0 0.00 0.00 0.00 91 1018.5
20191207083319 68 312 1.0 4.0 0.00 0.00 0.00 92 1018.4
20191207082819 69 26 1.0 4.0 0.00 0.00 0.00 91 1018.4
20191207082319 69 26 2.0 4.0 0.00 0.00 0.00 91 1018.3
20191207081820 69 26 3.0 5.0 0.00 0.00 0.00 91 1018.3
20191207081317 69 26 4.0 6.0 0.00 0.00 0.00 91 1018.3
20191207080817 69 34 4.0 7.0 0.00 0.00 0.00 91 1018.4
20191207080317 69 30 4.0 7.0 0.00 0.00 0.00 91 1018.3
20191207075819 69 13 5.0 7.0 0.00 0.00 0.00 91 1018.3
20191207075253 69 355 4.0 7.0 0.00 0.00 0.00 91 1018.1
20191207074728 69 30 4.0 6.0 0.00 0.00 0.00 90 1018.2
20191207074201 69 28 4.0 6.0 0.00 0.00 0.00 90 1018.1
20191207073635 69 44 5.0 8.0 0.00 0.00 0.00 90 1018.1
20191207073110 70 49 6.0 9.0 0.00 0.00 0.00 89 1018.1
20191207072544 70 42 6.0 9.0 0.00 0.00 0.00 89 1018.0
20191207072022 70 43 4.0 7.0 0.00 0.00 0.00 88 1018.0
20191207071502 70 19 3.0 6.0 0.00 0.00 0.00 88 1017.9
20191207070936 70 22 4.0 6.0 0.00 0.00 0.00 87 1017.9
20191207070410 71 24 4.0 7.0 0.00 0.00 0.00 87 1017.9
20191207065848 71 17 5.0 8.0 0.00 0.00 0.00 86 1017.9
20191207065323 71 26 5.0 8.0 0.00 0.00 0.00 86 1017.9
20191207064755 71 24 5.0 8.0 0.00 0.00 0.00 86 1017.9
20191207064227 71 12 6.0 8.0 0.00 0.00 0.00 85 1017.8
20191207063703 71 18 6.0 8.0 0.00 0.00 0.00 85 1017.8
20191207063134 72 9 6.0 8.0 0.00 0.00 0.00 84 1017.7
20191207062610 72 11 5.0 8.0 0.00 0.00 0.00 83 1017.6
20191207062042 72 24 4.0 8.0 0.00 0.00 0.00 83 1017.6
20191207061515 72 11 4.0 8.0 0.00 0.00 0.00 82 1017.4
20191207061013 72 355 5.0 8.0 0.00 0.00 0.00 82 1017.4
20191207060513 72 16 6.0 8.0 0.00 0.00 0.00 83 1017.4
20191207060013 72 20 5.0 8.0 0.00 0.00 0.00 82 1017.3
20191207055510 73 21 4.0 7.0 0.00 0.00 0.00 82 1017.1
20191207055012 73 15 5.0 7.0 0.00 0.00 0.00 82 1017.3
20191207054503 73 22 6.0 9.0 0.00 0.00 0.00 81 1017.4
20191207054002 73 313 6.0 9.0 0.00 0.00 0.00 81 1017.3
20191207053503 72 312 6.0 9.0 0.00 0.00 0.00 82 1017.3
20191207053002 72 348 7.0 10.0 0.00 0.00 0.00 82 1017.2
20191207052502 72 348 8.0 13.0 0.00 0.00 0.00 82 1017.1
20191207051957 72 5 7.0 13.0 0.00 0.00 0.00 82 1017.1
20191207051456 72 333 5.0 12.0 0.00 0.00 0.00 84 1017.1
20191207050957 72 338 6.0 11.0 0.00 0.00 0.00 85 1017.1
20191207050457 72 346 6.0 11.0 0.00 0.00 0.00 85 1017.2
20191207045936 73 17 6.0 10.0 0.00 0.00 0.00 82 1017.1
20191207045437 73 326 8.0 12.0 0.00 0.00 0.00 80 1017.2
20191207044936 74 306 7.0 12.0 0.00 0.00 0.00 79 1017.2
20191207044434 74 275 7.0 10.0 0.00 0.00 0.00 78 1017.3
20191207043932 74 336 7.0 11.0 0.00 0.00 0.00 77 1017.3
20191207043431 74 303 7.0 13.0 0.00 0.00 0.00 77 1017.4
20191207042932 74 321 8.0 13.0 0.00 0.00 0.00 77 1017.2
20191207042431 75 286 8.0 14.0 0.00 0.00 0.00 75 1017.2
20191207041931 75 290 9.0 14.0 0.00 0.00 0.00 75 1017.1
20191207041431 75 286 9.0 14.0 0.00 0.00 0.00 75 1017.0
20191207040929 75 306 8.0 13.0 0.00 0.00 0.00 74 1017.0
20191207040429 75 296 9.0 14.0 0.00 0.00 0.00 75 1017.3
20191207035926 75 308 10.0 15.0 0.00 0.00 0.00 75 1017.4
20191207035427 75 294 9.0 15.0 0.00 0.00 0.00 73 1017.4
20191207034926 75 323 9.0 15.0 0.00 0.00 0.00 74 1017.3
20191207034426 75 308 10.0 15.0 0.00 0.00 0.00 74 1017.4
20191207033926 75 306 9.0 14.0 0.00 0.00 0.00 74 1017.3
20191207033428 76 290 8.0 13.0 0.00 0.00 0.00 74 1017.3
20191207032859 76 336 9.0 14.0 0.00 0.00 0.00 72 1017.2
20191207032339 76 282 10.0 15.0 0.00 0.00 0.00 73 1017.0
20191207031840 76 300 8.0 15.0 0.00 0.00 0.00 73 1017.1
20191207031314 76 286 8.0 12.0 0.00 0.00 0.00 76 1017.1
20191207030814 76 280 8.0 12.0 0.00 0.00 0.00 75 1016.9
20191207030314 76 317 9.0 14.0 0.00 0.00 0.00 74 1016.9
20191207025814 76 291 9.0 14.0 0.00 0.00 0.00 74 1017.0
20191207025314 76 296 9.0 15.0 0.00 0.00 0.00 75 1016.9
20191207024815 76 259 9.0 15.0 0.00 0.00 0.00 74 1017.0
20191207024313 76 260 10.0 16.0 0.00 0.00 0.00 74 1017.2
20191207023814 76 325 9.0 16.0 0.00 0.00 0.00 74 1017.2
20191207023314 76 259 9.0 16.0 0.00 0.00 0.00 75 1017.3
20191207022812 76 295 10.0 16.0 0.00 0.00 0.00 74 1017.3
20191207022310 76 292 11.0 16.0 0.00 0.00 0.00 73 1017.3
20191207021810 77 302 10.0 16.0 0.00 0.00 0.00 71 1017.4
20191207021309 78 313 9.0 18.0 0.00 0.00 0.00 75 1017.4
20191207020811 77 292 11.0 18.0 0.00 0.00 0.00 74 1017.4
20191207020313 76 274 11.0 16.0 0.00 0.00 0.00 73 1017.3
20191207015800 76 267 9.0 14.0 0.00 0.00 0.00 73 1017.3
20191207015258 76 304 11.0 18.0 0.00 0.00 0.00 75 1017.2
20191207014756 76 286 12.0 18.0 0.00 0.00 0.00 75 1017.4
20191207014254 76 257 11.0 15.0 0.00 0.00 0.00 74 1017.6
20191207013755 76 281 9.0 15.0 0.00 0.00 0.00 74 1017.6
20191207013251 77 315 9.0 16.0 0.00 0.00 0.00 73 1017.6
20191207012750 77 318 10.0 19.0 0.00 0.00 0.00 71 1017.7
20191207012250 77 264 11.0 19.0 0.00 0.00 0.00 74 1017.7
20191207011745 76 263 10.0 16.0 0.00 0.00 0.00 71 1017.7
20191207011242 77 309 11.0 16.0 0.00 0.00 0.00 74 1017.9
20191207010740 76 297 12.0 16.0 0.00 0.00 0.00 74 1017.8
20191207010242 76 290 11.0 18.0 0.00 0.00 0.00 73 1017.6
20191207005721 77 271 10.0 18.0 0.00 0.00 0.00 74 1017.5
20191207005222 77 315 11.0 19.0 0.00 0.00 0.00 70 1017.6
20191207004708 78 321 11.0 20.0 0.00 0.00 0.00 70 1017.6
20191207004208 78 267 11.0 19.0 0.00 0.00 0.00 70 1017.6
20191207003708 77 304 10.0 19.0 0.00 0.00 0.00 70 1017.7
20191207003208 77 276 10.0 15.0 0.00 0.00 0.00 69 1017.7
20191207002709 77 295 10.0 16.0 0.00 0.00 0.00 69 1017.7
20191207002208 77 327 12.0 21.0 0.00 0.00 0.00 69 1017.8
20191207001708 77 319 13.0 22.0 0.00 0.00 0.00 67 1017.9
20191207001210 77 314 12.0 22.0 0.00 0.00 0.00 69 1017.9
20191207000707 77 283 10.0 18.0 0.00 0.00 0.00 69 1017.9
20191207000205 77 259 10.0 15.0 0.00 0.00 0.00 73 1017.9
20191206235706 77 266 10.0 16.0 0.00 0.00 0.00 70 1018.0
20191206235204 76 272 8.0 16.0 0.00 0.00 0.00 69 1018.1
20191206234706 76 287 8.0 12.0 0.00 0.00 0.00 70 1018.1
20191206234202 76 304 9.0 16.0 0.00 0.00 0.00 72 1018.1
20191206233701 76 261 8.0 16.0 0.00 0.00 0.00 72 1018.1
20191206233158 76 316 7.0 11.0 0.00 0.00 0.00 72 1018.2
20191206232652 76 311 8.0 12.0 0.00 0.00 0.00 71 1018.2
20191206232151 76 259 9.0 12.0 0.00 0.00 0.00 72 1018.2
20191206231650 75 290 9.0 13.0 0.00 0.00 0.00 71 1018.2
20191206231147 75 271 8.0 13.0 0.00 0.00 0.00 72 1018.2
20191206230645 76 279 8.0 16.0 0.00 0.00 0.00 70 1018.2
20191206230144 76 310 9.0 16.0 0.00 0.00 0.00 70 1018.3
20191206225644 76 315 11.0 16.0 0.00 0.00 0.00 69 1018.2
20191206225143 76 258 10.0 16.0 0.00 0.00 0.00 70 1018.2
20191206224640 75 285 9.0 14.0 0.00 0.00 0.00 70 1018.2
20191206224139 76 304 8.0 14.0 0.00 0.00 0.00 69 1018.1
20191206223639 75 269 7.0 12.0 0.00 0.00 0.00 71 1018.1
20191206223122 75 297 8.0 14.0 0.00 0.00 0.00 72 1018.2
20191206222621 75 255 8.0 14.0 0.00 0.00 0.00 72 1018.0
20191206222118 75 267 9.0 15.0 0.00 0.00 0.00 72 1018.1
20191206221620 74 300 10.0 15.0 0.00 0.00 0.00 71 1018.1
20191206221051 74 273 10.0 18.0 0.00 0.00 0.00 73 1018.1
20191206220532 74 294 11.0 18.0 0.00 0.00 0.00 73 1018.1
20191206220035 74 313 10.0 15.0 0.00 0.00 0.00 72 1018.1
20191206215530 75 304 9.0 15.0 0.00 0.00 0.00 73 1018.0
20191206215030 74 295 9.0 15.0 0.00 0.00 0.00 75 1018.0
20191206214531 74 304 8.0 13.0 0.00 0.00 0.00 74 1018.0
20191206214028 74 313 8.0 14.0 0.00 0.00 0.00 75 1018.0
20191206213526 74 302 8.0 14.0 0.00 0.00 0.00 75 1018.2
20191206213024 74 295 8.0 14.0 0.00 0.00 0.00 75 1018.2
20191206212522 74 331 8.0 14.0 0.00 0.00 0.00 74 1018.2
20191206212016 73 305 9.0 14.0 0.00 0.00 0.00 75 1018.2
20191206211516 73 291 9.0 14.0 0.00 0.00 0.00 74 1018.1
20191206211013 73 318 9.0 14.0 0.00 0.00 0.00 75 1018.2
20191206210510 74 322 6.0 12.0 0.00 0.00 0.00 75 1018.2
20191206210009 74 306 5.0 8.0 0.00 0.00 0.00 77 1018.2
20191206205508 74 310 5.0 10.0 0.00 0.00 0.00 80 1018.3
20191206205010 73 344 6.0 10.0 0.00 0.00 0.00 80 1018.3
20191206204458 73 281 5.0 12.0 0.00 0.00 0.00 80 1018.3
20191206203956 73 322 5.0 12.0 0.00 0.00 0.00 81 1018.3
20191206203456 72 17 5.0 10.0 0.00 0.00 0.00 82 1018.3
20191206202954 72 290 6.0 10.0 0.00 0.00 0.00 82 1018.3
20191206202453 72 344 6.0 9.0 0.00 0.00 0.00 83 1018.2
20191206201948 71 317 5.0 9.0 0.00 0.00 0.00 83 1018.3
20191206201446 71 296 5.0 8.0 0.00 0.00 0.00 86 1018.4
20191206200944 71 46 6.0 9.0 0.00 0.00 0.00 86 1018.3
20191206200444 70 0 6.0 9.0 0.00 0.00 0.00 87 1018.2
20191206195944 70 11 6.0 10.0 0.00 0.00 0.00 88 1018.2
20191206195436 69 9 5.0 10.0 0.00 0.00 0.00 88 1018.2
20191206194936 69 32 4.0 8.0 0.00 0.00 0.00 91 1018.1
20191206194435 69 339 5.0 8.0 0.00 0.00 0.00 91 1018.1
20191206193936 68 40 5.0 8.0 0.00 0.00 0.00 92 1017.9
20191206193411 68 19 5.0 7.0 0.00 0.00 0.00 93 1017.9
20191206192844 67 21 5.0 7.0 0.00 0.00 0.00 93 1017.9
20191206192318 67 21 4.0 6.0 0.00 0.00 0.00 94 1017.9
20191206191752 67 17 3.0 6.0 0.00 0.00 0.00 94 1017.7
20191206191227 66 34 3.0 5.0 0.00 0.00 0.00 94 1017.8
20191206190658 66 36 3.0 5.0 0.00 0.00 0.00 95 1017.8
20191206190132 66 38 2.0 5.0 0.00 0.00 0.00 95 1017.8
20191206185606 65 38 2.0 5.0 0.00 0.00 0.00 95 1017.9
20191206185042 65 38 2.0 5.0 0.00 0.00 0.00 95 1017.9
20191206184513 65 25 2.0 4.0 0.00 0.00 0.00 95 1017.8
20191206183944 64 25 3.0 5.0 0.00 0.00 0.00 95 1017.9
20191206183417 64 25 2.0 5.0 0.00 0.00 0.00 95 1017.8
20191206182901 64 26 2.0 4.0 0.00 0.00 0.00 95 1017.6
20191206182402 64 26 2.0 5.0 0.00 0.00 0.00 95 1017.6
20191206181840 64 24 2.0 4.0 0.00 0.00 0.00 96 1017.6
20191206181316 64 24 2.0 4.0 0.00 0.00 0.00 96 1017.4
20191206180751 63 24 3.0 5.0 0.00 0.00 0.00 96 1017.3
20191206180228 63 24 3.0 5.0 0.00 0.00 0.00 96 1017.2
20191206175701 63 24 2.0 4.0 0.00 0.00 0.00 96 1017.1
20191206175135 63 24 2.0 4.0 0.00 0.00 0.00 96 1017.2
20191206174610 63 24 2.0 4.0 0.00 0.00 0.00 96 1017.0
20191206174042 63 24 3.0 5.0 0.00 0.00 0.00 95 1017.2
20191206173514 63 24 3.0 5.0 0.00 0.01 0.00 96 1017.1
20191206172949 63 24 3.0 5.0 0.00 0.01 0.00 95 1017.1
20191206172422 63 24 3.0 5.0 0.00 0.01 0.00 96 1017.0